Regional Weather Roundup
Issued by NWS Green Bay, WI

Home | Current Version | Previous Version | Text Only | Print | Product List | Glossary On
Versions: 1 2 3 4 5 6 7 8 9 10 11 12 13 14 15 16 17 18 19 20 21 22 23 24 25 26 27 28 29 30 31 32 33 34 35 36 37 38 39 40 41 42 43 44 45 46 47 48 49 50
000
ASUS43 KGRB 301210
RWRGRB

NORTH-CENTRAL AND NORTHEAST WISCONSIN REGIONAL WEATHER ROUNDUP
NATIONAL WEATHER SERVICE GREEN BAY WI
700 AM CDT THU OCT 30 2014

WIZ005-009-010>012-018-019-301300-
NORTH CENTRAL WISCONSIN

CITY           SKY/WX    TMP DP  RH WIND       PRES   REMARKS
IRONWOOD       CLOUDY    37  34  87 SW5       30.01F
MANITOWISH WTR CLOUDY    36  33  90 CALM      30.02S
ARBOR VITAE    CLOUDY    37  33  87 CALM      30.03S
EAGLE RIVER    CLOUDY    36  31  84 CALM      30.02F
LAND O LAKES   CLOUDY    36  33  89 CALM      30.03S
RHINELANDER    CLOUDY    36  31  82 SW7       30.04S
PHILLIPS       CLOUDY    35  32  88 SW5       30.03F
ANTIGO         CLOUDY    32  32  99 CALM      30.05S
TOMAHAWK       CLOUDY    34  31  89 CALM      30.05S
MERRILL        CLOUDY    31  31 100 CALM      30.05F
$$

WIZ013-073-301300-
NORTHEAST WISCONSIN

CITY           SKY/WX    TMP DP  RH WIND       PRES   REMARKS
IRON MOUNTAIN  CLOUDY    39  33  79 CALM      30.03S
MARINETTE      CLOUDY    41  34  75 W3        30.06S
OCONTO         CLOUDY    37  36  93 CALM      30.07S
$$

WIZ017-030-035>037-045-301300-
CENTRAL WISCONSIN

CITY           SKY/WX    TMP DP  RH WIND       PRES   REMARKS
MEDFORD        CLOUDY    32  31  98 CALM      30.04F
WAUSAU         CLOUDY    34  31  88 CALM      30.05S
MOSINEE        PTCLDY    32  32 100 CALM      30.07R
MARSHFIELD     CLOUDY    33  31  92 CALM      30.06R
WISC RAPIDS    CLOUDY    33  32  96 CALM      30.09S
STEVENS POINT  CLOUDY    30  30  98 CALM      30.07S
WAUPACA        CLOUDY    34  33  94 CALM      30.08F
SHAWANO        CLOUDY    37  34  87 CALM      30.08S
CLINTONVILLE   CLOUDY    34  32  93 CALM      30.07F
$$

WIZ038-039-048-051-301300-
FOX VALLEY

CITY           SKY/WX    TMP DP  RH WIND       PRES   REMARKS
NWS GREEN BAY  CLOUDY    37  35  92 S3        30.08F
APPLETON       MOCLDY    36  34  93 CALM      30.08S
OSHKOSH        CLOUDY    35  32  88 S5        30.08F
FOND DU LAC    MOCLDY    32  30  92 S5        30.10S
$$

WIZ022-050-052-301300-
EAST CENTRAL WISCONSIN

CITY           SKY/WX    TMP DP  RH WIND       PRES   REMARKS
STURGEON BAY   CLOUDY    41  34  75 SW5       30.08S
MANITOWOC      MOCLDY    38  35  89 W5        30.10S
SHEBOYGAN      MOCLDY    34  31  88 S3        30.10S
$$

LMZ563-521-522-541>543-301300-
LAKESHORE

STATION/POSITION TIME  TEMP    WIND        PRES    VSBY  WAVE
                       AIR SEA DIR/SP/G                  HT/PER
                 (UTC) (F)     (DEG/KT/KT) (MB)    (MI)  (FT/S)
SHEBOYGAN LKSHOR 1200   38 50  240/  6/  7 1020.0F
KEWAUNEE LKSHORE 1200   38     290/  3/  4 1017.9F
TWO RIVERS CG    1200   38                 1019.2
NORTHPORT PIER   1200   43      CALM  /  2 1018.3S
N MID LAKE BUOY  1200   44 51  160/  2/  4 1018.8R         0
CHAMBERS ISLAND  1200   42     160/  1/  2 1018.3S
MENOMINEE LKSHOR 1200   42     230/  5/  7 1018.8S
$$



USA.gov is the U.S. government's official web portal to all federal, state and local government web resources and services.